Time,TemperatureF,DewpointF,PressureIn,WindDirection,WindDirectionDegrees,WindSpeedMPH,WindSpeedGustMPH,Humidity,HourlyPrecipIn,Conditions,Clouds,dailyrainin,SoftwareType,DateUTC
2013-07-13 00:00:00,64.3,60.0,29.92,NW,315,0.0,0.0,86,0.00,,,0.00,Wunderground v.1.15,2013-07-13 07:00:00,
2013-07-13 00:02:00,64.3,60.0,29.92,NW,315,0.0,0.0,86,0.00,,,0.00,Wunderground v.1.15,2013-07-13 07:02:00,
2013-07-13 00:04:00,64.3,60.0,29.92,NW,315,0.0,0.0,86,0.00,,,0.00,Wunderground v.1.15,2013-07-13 07:04:00,
2013-07-13 00:08:00,64.1,59.8,29.92,NW,315,0.0,0.0,86,0.00,,,0.00,Wunderground v.1.15,2013-07-13 07:08:00,
2013-07-13 00:10:00,64.1,59.8,29.92,NW,315,0.0,0.0,86,0.00,,,0.00,Wunderground v.1.15,2013-07-13 07:10:00,
2013-07-13 00:12:00,64.0,59.7,29.92,NW,315,0.0,0.0,86,0.00,,,0.00,Wunderground v.1.15,2013-07-13 07:12:00,
2013-07-13 00:14:00,64.0,59.7,29.92,NW,315,0.0,0.0,86,0.00,,,0.00,Wunderground v.1.15,2013-07-13 07:14:00,
2013-07-13 00:20:00,63.9,59.6,29.92,NW,315,0.0,0.0,86,0.00,,,0.00,Wunderground v.1.15,2013-07-13 07:20:00,
2013-07-13 00:22:00,63.8,59.5,29.92,NW,315,0.0,0.0,86,0.00,,,0.00,Wunderground v.1.15,2013-07-13 07:22:00,
2013-07-13 00:24:00,63.8,59.5,29.92,NW,315,0.0,0.0,86,0.00,,,0.00,Wunderground v.1.15,2013-07-13 07:24:00,
2013-07-13 00:28:00,63.7,59.4,29.92,NW,315,0.0,0.0,86,0.00,,,0.00,Wunderground v.1.15,2013-07-13 07:28:00,
2013-07-13 00:30:00,63.6,59.7,29.92,NW,315,0.0,0.0,87,0.00,,,0.00,Wunderground v.1.15,2013-07-13 07:30:00,
2013-07-13 00:32:00,63.6,59.7,29.92,NW,315,0.0,0.0,87,0.00,,,0.00,Wunderground v.1.15,2013-07-13 07:32:00,
2013-07-13 00:34:00,63.6,59.7,29.92,NW,315,0.0,0.0,87,0.00,,,0.00,Wunderground v.1.15,2013-07-13 07:34:00,
2013-07-13 00:38:00,63.5,59.6,29.92,NW,315,0.0,0.0,87,0.00,,,0.00,Wunderground v.1.15,2013-07-13 07:38:00,
2013-07-13 00:40:00,63.4,59.5,29.91,NW,315,0.0,0.0,87,0.00,,,0.00,Wunderground v.1.15,2013-07-13 07:40:00,
2013-07-13 00:42:00,63.4,59.5,29.92,NW,315,0.0,0.0,87,0.00,,,0.00,Wunderground v.1.15,2013-07-13 07:42:00,
2013-07-13 00:44:00,63.4,59.5,29.92,NW,315,0.0,0.0,87,0.00,,,0.00,Wunderground v.1.15,2013-07-13 07:44:00,
2013-07-13 00:46:00,63.3,59.4,29.92,NW,315,0.0,0.0,87,0.00,,,0.00,Wunderground v.1.15,2013-07-13 07:46:00,
2013-07-13 00:50:00,63.3,59.4,29.92,NW,315,0.0,0.0,87,0.00,,,0.00,Wunderground v.1.15,2013-07-13 07:50:00,
2013-07-13 00:52:00,63.3,59.4,29.92,NW,315,0.0,0.0,87,0.00,,,0.00,Wunderground v.1.15,2013-07-13 07:52:00,
2013-07-13 00:56:00,63.2,59.3,29.92,NW,315,0.0,0.0,87,0.00,,,0.00,Wunderground v.1.15,2013-07-13 07:56:00,
2013-07-13 00:58:00,63.2,59.3,29.92,NW,315,0.0,0.0,87,0.00,,,0.00,Wunderground v.1.15,2013-07-13 07:58:00,
2013-07-13 01:04:00,63.1,59.2,29.92,NW,315,0.0,0.0,87,0.00,,,0.00,Wunderground v.1.15,2013-07-13 08:04:00,
2013-07-13 01:06:00,63.1,59.2,29.92,NW,315,0.0,0.0,87,0.00,,,0.00,Wunderground v.1.15,2013-07-13 08:06:00,
2013-07-13 01:10:00,63.1,59.2,29.92,NW,315,0.0,0.0,87,0.00,,,0.00,Wunderground v.1.15,2013-07-13 08:10:00,
2013-07-13 01:12:00,63.1,59.2,29.92,NW,315,0.0,0.0,87,0.00,,,0.00,Wunderground v.1.15,2013-07-13 08:12:00,
2013-07-13 01:14:00,63.1,59.2,29.92,NW,315,0.0,0.0,87,0.00,,,0.00,Wunderground v.1.15,2013-07-13 08:14:00,
2013-07-13 01:18:00,63.1,59.2,29.92,NW,315,0.0,0.0,87,0.00,,,0.00,Wunderground v.1.15,2013-07-13 08:18:00,
2013-07-13 01:20:00,63.2,59.3,29.92,NW,315,0.0,0.0,87,0.00,,,0.00,Wunderground v.1.15,2013-07-13 08:20:00,
2013-07-13 01:26:00,63.3,59.4,29.92,NW,315,0.0,0.0,87,0.00,,,0.00,Wunderground v.1.15,2013-07-13 08:26:00,
2013-07-13 01:28:00,63.4,59.5,29.92,NW,315,0.0,0.0,87,0.00,,,0.00,Wunderground v.1.15,2013-07-13 08:28:00,
2013-07-13 01:32:00,63.5,60.2,29.92,NW,315,0.0,0.0,89,0.00,,,0.00,Wunderground v.1.15,2013-07-13 08:32:00,
2013-07-13 01:36:00,63.7,59.8,29.92,NW,315,0.0,0.0,87,0.00,,,0.00,Wunderground v.1.15,2013-07-13 08:36:00,
2013-07-13 01:38:00,63.7,59.8,29.92,NW,315,0.0,0.0,87,0.00,,,0.00,Wunderground v.1.15,2013-07-13 08:38:00,
2013-07-13 01:42:00,63.8,59.9,29.92,NW,315,0.0,0.0,87,0.00,,,0.00,Wunderground v.1.15,2013-07-13 08:42:00,
2013-07-13 01:48:00,63.9,60.0,29.92,NW,315,0.0,0.0,87,0.00,,,0.00,Wunderground v.1.15,2013-07-13 08:48:00,
2013-07-13 01:50:00,64.0,60.1,29.92,NW,315,0.0,0.0,87,0.00,,,0.00,Wunderground v.1.15,2013-07-13 08:50:00,
2013-07-13 01:52:00,64.0,60.1,29.92,NW,315,0.0,0.0,87,0.00,,,0.00,Wunderground v.1.15,2013-07-13 08:52:00,
2013-07-13 01:54:00,64.1,60.2,29.92,NW,315,0.0,0.0,87,0.00,,,0.00,Wunderground v.1.15,2013-07-13 08:54:00,
2013-07-13 01:56:00,64.1,60.2,29.92,NW,315,0.0,0.0,87,0.00,,,0.00,Wunderground v.1.15,2013-07-13 08:56:00,
2013-07-13 01:58:00,64.1,60.2,29.92,NW,315,0.0,0.0,87,0.00,,,0.00,Wunderground v.1.15,2013-07-13 08:58:00,
2013-07-13 02:02:00,64.2,60.2,29.92,NW,315,0.0,0.0,87,0.00,,,0.00,Wunderground v.1.15,2013-07-13 09:02:00,
2013-07-13 02:04:00,64.2,60.2,29.92,NW,315,0.0,0.0,87,0.00,,,0.00,Wunderground v.1.15,2013-07-13 09:04:00,
2013-07-13 02:06:00,64.3,60.3,29.92,NW,315,0.0,0.0,87,0.00,,,0.00,Wunderground v.1.15,2013-07-13 09:06:00,
2013-07-13 02:08:00,64.3,60.3,29.92,NW,315,0.0,0.0,87,0.00,,,0.00,Wunderground v.1.15,2013-07-13 09:08:00,
2013-07-13 02:12:00,64.4,60.4,29.92,NW,315,0.0,0.0,87,0.00,,,0.00,Wunderground v.1.15,2013-07-13 09:12:00,
2013-07-13 02:14:00,64.5,60.5,29.92,NW,315,0.0,0.0,87,0.00,,,0.00,Wunderground v.1.15,2013-07-13 09:14:00,
2013-07-13 02:18:00,64.6,60.6,29.91,NW,315,0.0,0.0,87,0.00,,,0.00,Wunderground v.1.15,2013-07-13 09:18:00,
2013-07-13 02:20:00,64.6,60.6,29.91,NW,315,0.0,0.0,87,0.00,,,0.00,Wunderground v.1.15,2013-07-13 09:20:00,
2013-07-13 02:22:00,64.6,60.6,29.91,NW,315,0.0,0.0,87,0.00,,,0.00,Wunderground v.1.15,2013-07-13 09:22:00,
2013-07-13 02:24:00,64.7,60.7,29.91,NW,315,0.0,0.0,87,0.00,,,0.00,Wunderground v.1.15,2013-07-13 09:24:00,
2013-07-13 02:30:00,64.8,60.8,29.91,NW,315,0.0,0.0,87,0.00,,,0.00,Wunderground v.1.15,2013-07-13 09:30:00,
2013-07-13 02:32:00,64.8,60.8,29.92,NW,315,0.0,0.0,87,0.00,,,0.00,Wunderground v.1.15,2013-07-13 09:32:00,
2013-07-13 02:34:00,64.8,60.8,29.91,NW,315,0.0,0.0,87,0.00,,,0.00,Wunderground v.1.15,2013-07-13 09:34:00,
2013-07-13 02:38:00,64.8,60.8,29.91,NW,315,0.0,0.0,87,0.00,,,0.00,Wunderground v.1.15,2013-07-13 09:38:00,
2013-07-13 02:40:00,64.9,60.9,29.91,NW,315,0.0,0.0,87,0.00,,,0.00,Wunderground v.1.15,2013-07-13 09:40:00,
2013-07-13 02:42:00,64.9,60.9,29.91,NW,315,0.0,0.0,87,0.00,,,0.00,Wunderground v.1.15,2013-07-13 09:42:00,
2013-07-13 02:44:00,64.9,60.9,29.91,NW,315,0.0,0.0,87,0.00,,,0.00,Wunderground v.1.15,2013-07-13 09:44:00,
2013-07-13 02:48:00,65.0,61.0,29.92,NW,315,0.0,0.0,87,0.00,,,0.00,Wunderground v.1.15,2013-07-13 09:48:00,
2013-07-13 02:50:00,65.0,61.0,29.92,NW,315,0.0,0.0,87,0.00,,,0.00,Wunderground v.1.15,2013-07-13 09:50:00,
2013-07-13 02:52:00,65.0,61.0,29.92,NW,315,0.0,0.0,87,0.00,,,0.00,Wunderground v.1.15,2013-07-13 09:52:00,
2013-07-13 02:54:00,65.0,61.0,29.92,NW,315,0.0,0.0,87,0.00,,,0.00,Wunderground v.1.15,2013-07-13 09:54:00,
2013-07-13 02:56:00,65.0,61.0,29.91,NW,315,0.0,0.0,87,0.00,,,0.00,Wunderground v.1.15,2013-07-13 09:56:00,
2013-07-13 02:58:00,65.0,61.0,29.92,NW,315,0.0,0.0,87,0.00,,,0.00,Wunderground v.1.15,2013-07-13 09:58:00,
2013-07-13 03:00:00,65.0,61.0,29.91,NW,315,0.0,0.0,87,0.00,,,0.00,Wunderground v.1.15,2013-07-13 10:00:00,
2013-07-13 03:02:00,65.1,61.1,29.91,NW,315,0.0,0.0,87,0.00,,,0.00,Wunderground v.1.15,2013-07-13 10:02:00,
2013-07-13 03:04:00,65.1,61.1,29.91,NW,315,0.0,0.0,87,0.00,,,0.00,Wunderground v.1.15,2013-07-13 10:04:00,
2013-07-13 03:08:00,65.2,61.2,29.91,NW,315,0.0,0.0,87,0.00,,,0.00,Wunderground v.1.15,2013-07-13 10:08:00,
2013-07-13 03:10:00,65.2,61.2,29.91,NW,315,0.0,0.0,87,0.00,,,0.00,Wunderground v.1.15,2013-07-13 10:10:00,
2013-07-13 03:14:00,65.2,61.2,29.91,NW,315,0.0,0.0,87,0.00,,,0.00,Wunderground v.1.15,2013-07-13 10:14:00,
2013-07-13 03:16:00,65.3,61.3,29.91,NW,315,0.0,0.0,87,0.00,,,0.00,Wunderground v.1.15,2013-07-13 10:16:00,
2013-07-13 03:18:00,65.3,61.3,29.91,NW,315,0.0,0.0,87,0.00,,,0.00,Wunderground v.1.15,2013-07-13 10:18:00,
2013-07-13 03:20:00,65.3,61.3,29.91,NW,315,0.0,0.0,87,0.00,,,0.00,Wunderground v.1.15,2013-07-13 10:20:00,
2013-07-13 03:22:00,65.3,61.3,29.91,NW,315,0.0,0.0,87,0.00,,,0.00,Wunderground v.1.15,2013-07-13 10:22:00,
2013-07-13 03:24:00,65.4,61.4,29.91,NW,315,0.0,2.0,87,0.00,,,0.00,Wunderground v.1.15,2013-07-13 10:24:00,
2013-07-13 03:26:00,65.3,61.3,29.91,NW,315,0.0,2.0,87,0.00,,,0.00,Wunderground v.1.15,2013-07-13 10:26:00,
2013-07-13 03:28:00,65.3,61.0,29.91,NW,315,1.0,2.0,86,0.00,,,0.00,Wunderground v.1.15,2013-07-13 10:28:00,
2013-07-13 03:30:00,65.3,61.0,29.91,NW,315,1.0,1.0,86,0.00,,,0.00,Wunderground v.1.15,2013-07-13 10:30:00,
2013-07-13 03:34:00,65.3,61.0,29.91,NW,315,1.0,1.0,86,0.00,,,0.00,Wunderground v.1.15,2013-07-13 10:34:00,
2013-07-13 03:36:00,65.3,61.0,29.91,NW,315,1.0,1.0,86,0.00,,,0.00,Wunderground v.1.15,2013-07-13 10:36:00,
2013-07-13 03:38:00,65.3,61.0,29.90,NW,315,0.0,1.0,86,0.00,,,0.00,Wunderground v.1.15,2013-07-13 10:38:00,
2013-07-13 03:40:00,65.3,61.0,29.91,NW,315,0.0,0.0,86,0.00,,,0.00,Wunderground v.1.15,2013-07-13 10:40:00,
2013-07-13 03:42:00,65.3,61.0,29.91,NW,315,0.0,0.0,86,0.00,,,0.00,Wunderground v.1.15,2013-07-13 10:42:00,
2013-07-13 03:44:00,65.3,61.0,29.90,NW,315,0.0,0.0,86,0.00,,,0.00,Wunderground v.1.15,2013-07-13 10:44:00,
2013-07-13 03:48:00,65.3,61.0,29.91,NW,315,0.0,0.0,86,0.00,,,0.00,Wunderground v.1.15,2013-07-13 10:48:00,
2013-07-13 03:50:00,65.3,61.0,29.91,NW,315,0.0,0.0,86,0.00,,,0.00,Wunderground v.1.15,2013-07-13 10:50:00,
2013-07-13 03:54:00,65.4,61.1,29.91,NW,315,0.0,0.0,86,0.00,,,0.00,Wunderground v.1.15,2013-07-13 10:54:00,
2013-07-13 03:56:00,65.4,61.1,29.91,NW,315,0.0,0.0,86,0.00,,,0.00,Wunderground v.1.15,2013-07-13 10:56:00,
2013-07-13 03:58:00,65.4,61.1,29.91,NW,315,0.0,0.0,86,0.00,,,0.00,Wunderground v.1.15,2013-07-13 10:58:00,
2013-07-13 04:04:00,65.4,61.1,29.91,NW,315,0.0,1.0,86,0.00,,,0.00,Wunderground v.1.15,2013-07-13 11:04:00,
2013-07-13 04:06:00,65.5,61.2,29.91,NW,315,0.0,1.0,86,0.00,,,0.00,Wunderground v.1.15,2013-07-13 11:06:00,
2013-07-13 04:10:00,65.5,61.2,29.90,NW,315,0.0,2.0,86,0.00,,,0.00,Wunderground v.1.15,2013-07-13 11:10:00,
2013-07-13 04:12:00,65.5,61.2,29.90,NW,315,0.0,2.0,86,0.00,,,0.00,Wunderground v.1.15,2013-07-13 11:12:00,
2013-07-13 04:16:00,65.5,61.2,29.91,NW,315,0.0,2.0,86,0.00,,,0.00,Wunderground v.1.15,2013-07-13 11:16:00,
2013-07-13 04:18:00,65.5,61.2,29.90,NW,315,0.0,2.0,86,0.00,,,0.00,Wunderground v.1.15,2013-07-13 11:18:00,
2013-07-13 04:22:00,65.5,61.2,29.91,NW,315,0.0,0.0,86,0.00,,,0.00,Wunderground v.1.15,2013-07-13 11:22:00,
2013-07-13 04:24:00,65.5,61.2,29.91,NW,315,0.0,0.0,86,0.00,,,0.00,Wunderground v.1.15,2013-07-13 11:24:00,
2013-07-13 04:26:00,65.6,61.3,29.91,NW,315,0.0,0.0,86,0.00,,,0.00,Wunderground v.1.15,2013-07-13 11:26:00,
2013-07-13 04:28:00,65.5,61.2,29.91,NW,315,0.0,0.0,86,0.00,,,0.00,Wunderground v.1.15,2013-07-13 11:28:00,
2013-07-13 04:32:00,65.5,61.2,29.91,NW,315,0.0,0.0,86,0.00,,,0.00,Wunderground v.1.15,2013-07-13 11:32:00,
2013-07-13 04:34:00,65.5,61.2,29.91,NW,315,0.0,0.0,86,0.00,,,0.00,Wunderground v.1.15,2013-07-13 11:34:00,
2013-07-13 04:36:00,65.6,61.3,29.91,NW,315,0.0,0.0,86,0.00,,,0.00,Wunderground v.1.15,2013-07-13 11:36:00,
2013-07-13 04:40:00,65.5,61.2,29.91,NW,315,0.0,3.0,86,0.00,,,0.00,Wunderground v.1.15,2013-07-13 11:40:00,
2013-07-13 04:42:00,65.5,61.2,29.91,NW,315,1.0,3.0,86,0.00,,,0.00,Wunderground v.1.15,2013-07-13 11:42:00,
2013-07-13 04:44:00,65.5,61.2,29.91,NW,315,1.0,3.0,86,0.00,,,0.00,Wunderground v.1.15,2013-07-13 11:44:00,
2013-07-13 04:46:00,65.5,61.2,29.91,NW,315,1.0,3.0,86,0.00,,,0.00,Wunderground v.1.15,2013-07-13 11:46:00,
2013-07-13 04:50:00,65.5,61.2,29.92,NW,313,1.0,1.0,86,0.00,,,0.00,Wunderground v.1.15,2013-07-13 11:50:00,
2013-07-13 04:54:00,65.5,61.2,29.92,NW,317,1.0,2.0,86,0.00,,,0.00,Wunderground v.1.15,2013-07-13 11:54:00,
2013-07-13 04:56:00,65.5,61.2,29.92,ESE,110,1.0,2.0,86,0.00,,,0.00,Wunderground v.1.15,2013-07-13 11:56:00,
2013-07-13 04:58:00,65.4,61.1,29.92,ESE,110,1.0,2.0,86,0.00,,,0.00,Wunderground v.1.15,2013-07-13 11:58:00,
2013-07-13 05:00:00,65.4,61.1,29.92,ESE,107,1.0,2.0,86,0.00,,,0.00,Wunderground v.1.15,2013-07-13 12:00:00,
2013-07-13 05:04:00,65.4,61.1,29.92,ESE,107,1.0,3.0,86,0.00,,,0.00,Wunderground v.1.15,2013-07-13 12:04:00,
2013-07-13 05:06:00,65.4,61.1,29.92,ESE,107,1.0,3.0,86,0.00,,,0.00,Wunderground v.1.15,2013-07-13 12:06:00,
2013-07-13 05:12:00,65.3,61.0,29.92,ESE,107,1.0,2.0,86,0.00,,,0.00,Wunderground v.1.15,2013-07-13 12:12:00,
2013-07-13 05:18:00,65.4,61.1,29.92,ESE,107,0.0,2.0,86,0.00,,,0.00,Wunderground v.1.15,2013-07-13 12:18:00,
2013-07-13 05:20:00,65.3,61.0,29.92,ESE,107,0.0,0.0,86,0.00,,,0.00,Wunderground v.1.15,2013-07-13 12:20:00,
2013-07-13 05:22:00,65.3,61.0,29.92,ESE,107,0.0,0.0,86,0.00,,,0.00,Wunderground v.1.15,2013-07-13 12:22:00,
2013-07-13 05:24:00,65.3,61.0,29.92,ESE,107,0.0,0.0,86,0.00,,,0.00,Wunderground v.1.15,2013-07-13 12:24:00,
2013-07-13 05:30:00,65.3,61.0,29.92,ESE,107,0.0,0.0,86,0.00,,,0.00,Wunderground v.1.15,2013-07-13 12:30:00,
2013-07-13 05:36:00,65.3,61.0,29.92,ESE,107,0.0,0.0,86,0.00,,,0.00,Wunderground v.1.15,2013-07-13 12:36:00,
2013-07-13 05:38:00,65.3,61.0,29.92,ESE,107,0.0,0.0,86,0.00,,,0.00,Wunderground v.1.15,2013-07-13 12:38:00,
2013-07-13 05:42:00,65.2,60.9,29.92,ESE,107,0.0,0.0,86,0.00,,,0.00,Wunderground v.1.15,2013-07-13 12:42:00,
2013-07-13 05:44:00,65.3,61.0,29.92,ESE,107,0.0,2.0,86,0.00,,,0.00,Wunderground v.1.15,2013-07-13 12:44:00,
2013-07-13 05:46:00,65.3,61.0,29.92,ESE,107,0.0,2.0,86,0.00,,,0.00,Wunderground v.1.15,2013-07-13 12:46:00,
2013-07-13 05:50:00,65.3,61.0,29.92,ESE,107,0.0,0.0,86,0.00,,,0.00,Wunderground v.1.15,2013-07-13 12:50:00,
2013-07-13 05:52:00,65.3,61.0,29.92,ESE,107,0.0,0.0,86,0.00,,,0.00,Wunderground v.1.15,2013-07-13 12:52:00,
2013-07-13 05:54:00,65.3,61.0,29.92,ESE,107,0.0,2.0,86,0.00,,,0.00,Wunderground v.1.15,2013-07-13 12:54:00,
2013-07-13 05:56:00,65.3,61.0,29.92,ESE,107,0.0,2.0,86,0.00,,,0.00,Wunderground v.1.15,2013-07-13 12:56:00,
2013-07-13 06:02:00,65.3,61.0,29.92,ESE,107,0.0,0.0,86,0.00,,,0.00,Wunderground v.1.15,2013-07-13 13:02:00,
2013-07-13 06:04:00,65.3,61.0,29.92,ESE,107,0.0,0.0,86,0.00,,,0.00,Wunderground v.1.15,2013-07-13 13:04:00,
2013-07-13 06:06:00,65.3,61.0,29.92,ESE,107,0.0,0.0,86,0.00,,,0.00,Wunderground v.1.15,2013-07-13 13:06:00,
2013-07-13 06:08:00,65.3,61.0,29.92,ESE,107,0.0,0.0,86,0.00,,,0.00,Wunderground v.1.15,2013-07-13 13:08:00,
2013-07-13 06:10:00,65.3,61.0,29.92,ESE,107,0.0,0.0,86,0.00,,,0.00,Wunderground v.1.15,2013-07-13 13:10:00,
2013-07-13 06:18:00,65.3,61.0,29.92,ESE,107,0.0,1.0,86,0.00,,,0.00,Wunderground v.1.15,2013-07-13 13:18:00,
2013-07-13 06:22:00,65.3,61.0,29.92,ESE,107,0.0,0.0,86,0.00,,,0.00,Wunderground v.1.15,2013-07-13 13:22:00,
2013-07-13 06:24:00,65.3,61.0,29.93,ESE,107,0.0,0.0,86,0.00,,,0.00,Wunderground v.1.15,2013-07-13 13:24:00,
2013-07-13 06:30:00,65.3,61.0,29.92,ESE,107,0.0,0.0,86,0.00,,,0.00,Wunderground v.1.15,2013-07-13 13:30:00,
2013-07-13 06:32:00,65.3,61.0,29.92,ESE,107,0.0,0.0,86,0.00,,,0.00,Wunderground v.1.15,2013-07-13 13:32:00,
2013-07-13 06:36:00,65.4,61.1,29.92,ESE,107,0.0,0.0,86,0.00,,,0.00,Wunderground v.1.15,2013-07-13 13:36:00,
2013-07-13 06:38:00,65.4,61.1,29.92,ESE,107,0.0,0.0,86,0.00,,,0.00,Wunderground v.1.15,2013-07-13 13:38:00,
2013-07-13 06:40:00,65.4,61.1,29.92,ESE,107,0.0,0.0,86,0.00,,,0.00,Wunderground v.1.15,2013-07-13 13:40:00,
2013-07-13 06:44:00,65.4,61.1,29.92,ESE,107,0.0,0.0,86,0.00,,,0.00,Wunderground v.1.15,2013-07-13 13:44:00,
2013-07-13 06:46:00,65.4,61.1,29.92,ESE,107,0.0,0.0,86,0.00,,,0.00,Wunderground v.1.15,2013-07-13 13:46:00,
2013-07-13 06:48:00,65.4,61.1,29.92,ESE,107,0.0,0.0,86,0.00,,,0.00,Wunderground v.1.15,2013-07-13 13:48:00,
2013-07-13 06:52:00,65.5,61.2,29.92,ESE,107,0.0,0.0,86,0.00,,,0.00,Wunderground v.1.15,2013-07-13 13:52:00,
2013-07-13 06:54:00,65.5,61.2,29.93,ESE,107,0.0,0.0,86,0.00,,,0.00,Wunderground v.1.15,2013-07-13 13:54:00,
2013-07-13 06:58:00,65.5,61.2,29.93,ESE,107,0.0,0.0,86,0.00,,,0.00,Wunderground v.1.15,2013-07-13 13:58:00,
2013-07-13 07:01:00,65.5,61.2,29.93,ESE,107,0.0,0.0,86,0.00,,,0.00,Wunderground v.1.15,2013-07-13 14:01:00,
2013-07-13 07:02:00,65.5,61.2,29.93,ESE,107,0.0,0.0,86,0.00,,,0.00,Wunderground v.1.15,2013-07-13 14:02:00,
2013-07-13 07:06:00,65.5,61.2,29.93,ESE,107,0.0,0.0,86,0.00,,,0.00,Wunderground v.1.15,2013-07-13 14:06:00,
2013-07-13 07:08:00,65.5,61.2,29.93,ESE,107,0.0,0.0,86,0.00,,,0.00,Wunderground v.1.15,2013-07-13 14:08:00,
2013-07-13 07:10:00,65.5,61.2,29.93,South,170,0.0,0.0,86,0.00,,,0.00,Wunderground v.1.15,2013-07-13 14:10:00,
2013-07-13 07:14:00,65.4,60.8,29.93,South,170,1.0,1.0,85,0.00,,,0.00,Wunderground v.1.15,2013-07-13 14:14:00,
2013-07-13 07:16:00,65.4,60.8,29.93,South,182,1.0,1.0,85,0.00,,,0.00,Wunderground v.1.15,2013-07-13 14:16:00,
2013-07-13 07:18:00,65.4,60.8,29.93,South,182,1.0,1.0,85,0.00,,,0.00,Wunderground v.1.15,2013-07-13 14:18:00,
2013-07-13 07:20:00,65.4,60.8,29.93,South,182,1.0,1.0,85,0.00,,,0.00,Wunderground v.1.15,2013-07-13 14:20:00,
2013-07-13 07:24:00,65.4,60.8,29.93,South,182,0.0,0.0,85,0.00,,,0.00,Wunderground v.1.15,2013-07-13 14:24:00,
2013-07-13 07:26:00,65.4,60.8,29.93,South,182,0.0,0.0,85,0.00,,,0.00,Wunderground v.1.15,2013-07-13 14:26:00,
2013-07-13 07:28:00,65.5,60.9,29.93,South,182,0.0,0.0,85,0.00,,,0.00,Wunderground v.1.15,2013-07-13 14:28:00,
2013-07-13 07:30:00,65.6,61.0,29.93,South,182,0.0,0.0,85,0.00,,,0.00,Wunderground v.1.15,2013-07-13 14:30:00,
2013-07-13 07:34:00,65.7,61.1,29.93,South,182,0.0,0.0,85,0.00,,,0.00,Wunderground v.1.15,2013-07-13 14:34:00,
2013-07-13 07:36:00,65.7,61.1,29.93,South,182,0.0,0.0,85,0.00,,,0.00,Wunderground v.1.15,2013-07-13 14:36:00,
2013-07-13 07:40:00,65.8,61.2,29.93,South,182,0.0,0.0,85,0.00,,,0.00,Wunderground v.1.15,2013-07-13 14:40:00,
2013-07-13 07:42:00,65.9,61.3,29.93,South,182,0.0,0.0,85,0.00,,,0.00,Wunderground v.1.15,2013-07-13 14:42:00,
2013-07-13 07:44:00,65.9,61.3,29.93,South,182,0.0,0.0,85,0.00,,,0.00,Wunderground v.1.15,2013-07-13 14:44:00,
2013-07-13 07:50:00,66.2,61.6,29.93,South,182,0.0,1.0,85,0.00,,,0.00,Wunderground v.1.15,2013-07-13 14:50:00,
2013-07-13 07:52:00,66.2,61.6,29.93,South,182,0.0,1.0,85,0.00,,,0.00,Wunderground v.1.15,2013-07-13 14:52:00,
2013-07-13 07:56:00,66.3,61.7,29.93,SW,227,0.0,2.0,85,0.00,,,0.00,Wunderground v.1.15,2013-07-13 14:56:00,
2013-07-13 07:58:00,66.3,61.7,29.93,SW,227,1.0,2.0,85,0.00,,,0.00,Wunderground v.1.15,2013-07-13 14:58:00,
2013-07-13 08:00:00,66.4,61.8,29.93,SW,227,1.0,1.0,85,0.00,,,0.00,Wunderground v.1.15,2013-07-13 15:00:00,
2013-07-13 08:02:00,66.4,61.8,29.93,SW,227,1.0,1.0,85,0.00,,,0.00,Wunderground v.1.15,2013-07-13 15:02:00,
2013-07-13 08:04:00,66.3,61.7,29.93,SW,227,0.0,1.0,85,0.00,,,0.00,Wunderground v.1.15,2013-07-13 15:04:00,
2013-07-13 08:08:00,66.3,61.7,29.94,SW,227,0.0,1.0,85,0.00,,,0.00,Wunderground v.1.15,2013-07-13 15:08:00,
2013-07-13 08:10:00,66.4,61.8,29.94,SW,227,0.0,2.0,85,0.00,,,0.00,Wunderground v.1.15,2013-07-13 15:10:00,
2013-07-13 08:12:00,66.4,61.8,29.94,SW,227,0.0,2.0,85,0.00,,,0.00,Wunderground v.1.15,2013-07-13 15:12:00,
2013-07-13 08:14:00,66.4,61.8,29.94,SW,227,0.0,2.0,85,0.00,,,0.00,Wunderground v.1.15,2013-07-13 15:14:00,
2013-07-13 08:16:00,66.5,61.8,29.94,SW,227,0.0,2.0,85,0.00,,,0.00,Wunderground v.1.15,2013-07-13 15:16:00,
2013-07-13 08:22:00,66.6,61.6,29.94,SW,219,0.0,3.0,84,0.00,,,0.00,Wunderground v.1.15,2013-07-13 15:22:00,
2013-07-13 08:24:00,66.7,61.7,29.94,SSW,205,1.0,3.0,84,0.00,,,0.00,Wunderground v.1.15,2013-07-13 15:24:00,
2013-07-13 08:26:00,66.7,61.7,29.94,SSW,205,0.0,3.0,84,0.00,,,0.00,Wunderground v.1.15,2013-07-13 15:26:00,
2013-07-13 08:30:00,66.8,61.8,29.95,SSW,205,1.0,1.0,84,0.00,,,0.00,Wunderground v.1.15,2013-07-13 15:30:00,
2013-07-13 08:32:00,66.8,61.8,29.95,SSW,205,1.0,1.0,84,0.00,,,0.00,Wunderground v.1.15,2013-07-13 15:32:00,
2013-07-13 08:34:00,66.8,61.8,29.95,SSW,205,0.0,1.0,84,0.00,,,0.00,Wunderground v.1.15,2013-07-13 15:34:00,
2013-07-13 08:38:00,66.8,61.8,29.95,SSW,205,1.0,1.0,84,0.00,,,0.00,Wunderground v.1.15,2013-07-13 15:38:00,
2013-07-13 08:40:00,66.9,61.9,29.95,SSW,205,1.0,1.0,84,0.00,,,0.00,Wunderground v.1.15,2013-07-13 15:40:00,
2013-07-13 08:44:00,67.0,62.0,29.95,SSW,205,1.0,1.0,84,0.00,,,0.00,Wunderground v.1.15,2013-07-13 15:44:00,
2013-07-13 08:46:00,67.0,62.0,29.95,SSW,205,1.0,1.0,84,0.00,,,0.00,Wunderground v.1.15,2013-07-13 15:46:00,
2013-07-13 08:50:00,67.2,62.2,29.95,SSW,205,1.0,1.0,84,0.00,,,0.00,Wunderground v.1.15,2013-07-13 15:50:00,
2013-07-13 08:54:00,67.2,62.2,29.94,SSW,211,1.0,1.0,84,0.00,,,0.00,Wunderground v.1.15,2013-07-13 15:54:00,
2013-07-13 08:56:00,67.3,62.3,29.94,West,264,1.0,2.0,84,0.00,,,0.00,Wunderground v.1.15,2013-07-13 15:56:00,
2013-07-13 08:58:00,67.3,62.3,29.94,WSW,254,1.0,2.0,84,0.00,,,0.00,Wunderground v.1.15,2013-07-13 15:58:00,
2013-07-13 09:00:00,67.4,62.4,29.94,WSW,246,1.0,2.0,84,0.00,,,0.00,Wunderground v.1.15,2013-07-13 16:00:00,
2013-07-13 09:02:00,67.4,62.4,29.94,SW,221,2.0,3.0,84,0.00,,,0.00,Wunderground v.1.15,2013-07-13 16:02:00,
2013-07-13 09:04:00,67.5,62.2,29.94,SW,221,2.0,3.0,83,0.00,,,0.00,Wunderground v.1.15,2013-07-13 16:04:00,
2013-07-13 09:06:00,67.6,62.6,29.94,SW,221,2.0,3.0,84,0.00,,,0.00,Wunderground v.1.15,2013-07-13 16:06:00,
2013-07-13 09:08:00,67.6,62.3,29.95,SW,218,2.0,3.0,83,0.00,,,0.00,Wunderground v.1.15,2013-07-13 16:08:00,
2013-07-13 09:10:00,67.7,62.3,29.95,SW,218,2.0,2.0,83,0.00,,,0.00,Wunderground v.1.15,2013-07-13 16:10:00,
2013-07-13 09:12:00,67.8,62.4,29.95,SW,218,2.0,2.0,83,0.00,,,0.00,Wunderground v.1.15,2013-07-13 16:12:00,
2013-07-13 14:50:00,79.1,66.3,29.88,SSE,165,4.0,4.0,65,0.00,,,0.00,Wunderground v.1.15,2013-07-13 21:50:00,
2013-07-13 14:52:00,79.1,66.8,29.88,South,182,4.0,4.0,66,0.00,,,0.00,Wunderground v.1.15,2013-07-13 21:52:00,
2013-07-13 14:56:00,79.0,66.7,29.88,SSW,196,5.0,7.0,66,0.00,,,0.00,Wunderground v.1.15,2013-07-13 21:56:00,
2013-07-13 14:58:00,78.8,66.0,29.88,South,188,5.0,7.0,65,0.00,,,0.00,Wunderground v.1.15,2013-07-13 21:58:00,
2013-07-13 15:00:00,78.7,66.4,29.88,SSW,193,5.0,5.0,66,0.00,,,0.00,Wunderground v.1.15,2013-07-13 22:00:00,
2013-07-13 15:04:00,78.8,66.0,29.88,SSE,157,5.0,5.0,65,0.00,,,0.00,Wunderground v.1.15,2013-07-13 22:04:00,
2013-07-13 15:06:00,78.8,66.0,29.88,SSW,207,5.0,5.0,65,0.00,,,0.00,Wunderground v.1.15,2013-07-13 22:06:00,
2013-07-13 15:08:00,78.9,66.6,29.88,SSW,197,5.0,7.0,66,0.00,,,0.00,Wunderground v.1.15,2013-07-13 22:08:00,
2013-07-13 15:10:00,78.9,66.1,29.88,South,169,5.0,5.0,65,0.00,,,0.00,Wunderground v.1.15,2013-07-13 22:10:00,
2013-07-13 15:12:00,79.0,66.2,29.88,SSW,202,5.0,5.0,65,0.00,,,0.00,Wunderground v.1.15,2013-07-13 22:12:00,
2013-07-13 15:18:00,77.8,65.5,29.88,SSW,200,6.0,9.0,66,0.00,,,0.00,Wunderground v.1.15,2013-07-13 22:18:00,
2013-07-13 15:20:00,77.5,65.7,29.88,WSW,241,7.0,7.0,67,0.00,,,0.00,Wunderground v.1.15,2013-07-13 22:20:00,
2013-07-13 15:22:00,77.4,65.6,29.88,SW,236,7.0,9.0,67,0.00,,,0.00,Wunderground v.1.15,2013-07-13 22:22:00,
2013-07-13 15:24:00,77.2,65.0,29.87,WSW,254,7.0,9.0,66,0.00,,,0.00,Wunderground v.1.15,2013-07-13 22:24:00,
2013-07-13 15:28:00,77.3,65.5,29.87,SW,214,6.0,9.0,67,0.00,,,0.00,Wunderground v.1.15,2013-07-13 22:28:00,
2013-07-13 15:32:00,77.4,65.6,29.87,SSW,201,7.0,9.0,67,0.00,,,0.00,Wunderground v.1.15,2013-07-13 22:32:00,
2013-07-13 15:34:00,77.6,65.8,29.87,SW,215,6.0,9.0,67,0.00,,,0.00,Wunderground v.1.15,2013-07-13 22:34:00,
2013-07-13 15:38:00,78.3,65.6,29.87,South,169,5.0,9.0,65,0.00,,,0.00,Wunderground v.1.15,2013-07-13 22:38:00,
2013-07-13 15:40:00,78.8,65.6,29.86,SSW,207,4.0,6.0,64,0.00,,,0.00,Wunderground v.1.15,2013-07-13 22:40:00,
2013-07-13 15:44:00,79.0,66.2,29.86,SSW,195,4.0,6.0,65,0.00,,,0.00,Wunderground v.1.15,2013-07-13 22:44:00,
2013-07-13 15:50:00,79.5,66.3,29.86,SSW,212,5.0,7.0,64,0.00,,,0.00,Wunderground v.1.15,2013-07-13 22:50:00,
2013-07-13 15:52:00,79.3,66.1,29.86,SW,217,5.0,7.0,64,0.00,,,0.00,Wunderground v.1.15,2013-07-13 22:52:00,
2013-07-13 15:56:00,78.6,64.9,29.86,SSE,165,7.0,8.0,63,0.00,,,0.00,Wunderground v.1.15,2013-07-13 22:56:00,
2013-07-13 15:58:00,78.4,65.2,29.86,South,175,7.0,8.0,64,0.00,,,0.00,Wunderground v.1.15,2013-07-13 22:58:00,
2013-07-13 16:04:00,79.0,66.2,29.86,SSW,207,5.0,6.0,65,0.00,,,0.00,Wunderground v.1.15,2013-07-13 23:04:00,
2013-07-13 16:06:00,79.3,66.5,29.85,SW,232,4.0,7.0,65,0.00,,,0.00,Wunderground v.1.15,2013-07-13 23:06:00,
2013-07-13 16:08:00,79.5,65.8,29.85,SW,216,4.0,10.0,63,0.00,,,0.00,Wunderground v.1.15,2013-07-13 23:08:00,
2013-07-13 16:12:00,79.6,66.3,29.85,SSW,201,4.0,8.0,64,0.00,,,0.00,Wunderground v.1.15,2013-07-13 23:12:00,
2013-07-13 16:14:00,79.6,65.9,29.85,SSW,198,5.0,8.0,63,0.00,,,0.00,Wunderground v.1.15,2013-07-13 23:14:00,
2013-07-13 16:18:00,79.4,66.2,29.85,SW,230,5.0,8.0,64,0.00,,,0.00,Wunderground v.1.15,2013-07-13 23:18:00,
2013-07-13 16:20:00,79.2,66.0,29.85,SSW,194,5.0,7.0,64,0.00,,,0.00,Wunderground v.1.15,2013-07-13 23:20:00,
2013-07-13 16:22:00,79.1,66.3,29.85,South,184,6.0,7.0,65,0.00,,,0.00,Wunderground v.1.15,2013-07-13 23:22:00,
2013-07-13 16:26:00,79.4,66.2,29.85,SSW,198,6.0,7.0,64,0.00,,,0.00,Wunderground v.1.15,2013-07-13 23:26:00,
2013-07-13 16:28:00,79.5,66.3,29.85,SW,215,6.0,7.0,64,0.00,,,0.00,Wunderground v.1.15,2013-07-13 23:28:00,
2013-07-13 16:34:00,79.7,66.4,29.85,SSW,209,5.0,6.0,64,0.00,,,0.00,Wunderground v.1.15,2013-07-13 23:34:00,
2013-07-13 16:38:00,80.0,67.2,29.85,SSE,163,4.0,6.0,65,0.00,,,0.00,Wunderground v.1.15,2013-07-13 23:38:00,
2013-07-13 16:40:00,80.4,67.1,29.85,SSW,194,4.0,4.0,64,0.00,,,0.00,Wunderground v.1.15,2013-07-13 23:40:00,
2013-07-13 16:46:00,80.5,66.7,29.85,SSW,208,4.0,6.0,63,0.00,,,0.00,Wunderground v.1.15,2013-07-13 23:46:00,
2013-07-13 16:48:00,80.4,66.6,29.85,South,188,4.0,8.0,63,0.00,,,0.00,Wunderground v.1.15,2013-07-13 23:48:00,
2013-07-13 16:50:00,80.2,66.9,29.85,South,172,4.0,4.0,64,0.00,,,0.00,Wunderground v.1.15,2013-07-13 23:50:00,
2013-07-13 16:54:00,80.3,66.6,29.85,SSW,194,4.0,6.0,63,0.00,,,0.00,Wunderground v.1.15,2013-07-13 23:54:00,
2013-07-13 16:56:00,80.4,66.6,29.84,SW,217,5.0,6.0,63,0.00,,,0.00,Wunderground v.1.15,2013-07-13 23:56:00,
2013-07-13 16:58:00,80.3,66.6,29.84,SSW,203,5.0,6.0,63,0.00,,,0.00,Wunderground v.1.15,2013-07-13 23:58:00,
2013-07-13 17:02:00,80.0,66.7,29.84,South,175,5.0,5.0,64,0.00,,,0.00,Wunderground v.1.15,2013-07-14 00:02:00,
2013-07-13 17:04:00,80.0,66.7,29.85,SSW,203,5.0,5.0,64,0.00,,,0.00,Wunderground v.1.15,2013-07-14 00:04:00,
2013-07-13 17:06:00,80.1,66.8,29.84,South,178,4.0,5.0,64,0.00,,,0.00,Wunderground v.1.15,2013-07-14 00:06:00,
2013-07-13 17:08:00,80.3,67.0,29.84,South,184,4.0,5.0,64,0.00,,,0.00,Wunderground v.1.15,2013-07-14 00:08:00,
2013-07-13 17:10:00,80.5,67.2,29.84,South,180,3.0,5.0,64,0.00,,,0.00,Wunderground v.1.15,2013-07-14 00:10:00,
2013-07-13 17:12:00,80.6,67.3,29.84,SSE,165,2.0,2.0,64,0.00,,,0.00,Wunderground v.1.15,2013-07-14 00:12:00,
2013-07-13 17:14:00,80.9,67.1,29.84,SW,215,2.0,3.0,63,0.00,,,0.00,Wunderground v.1.15,2013-07-14 00:14:00,
2013-07-13 17:18:00,81.0,67.2,29.84,SW,215,2.0,3.0,63,0.00,,,0.00,Wunderground v.1.15,2013-07-14 00:18:00,
2013-07-13 17:20:00,80.8,67.0,29.84,SSW,203,3.0,3.0,63,0.00,,,0.00,Wunderground v.1.15,2013-07-14 00:20:00,
2013-07-13 17:22:00,80.7,66.9,29.84,South,178,3.0,3.0,63,0.00,,,0.00,Wunderground v.1.15,2013-07-14 00:22:00,
2013-07-13 17:28:00,80.8,66.6,29.84,NW,315,1.0,3.0,62,0.00,,,0.00,Wunderground v.1.15,2013-07-14 00:28:00,
2013-07-13 17:30:00,80.8,65.1,29.84,NNE,19,1.0,5.0,59,0.00,,,0.00,Wunderground v.1.15,2013-07-14 00:30:00,
2013-07-13 17:32:00,80.8,65.1,29.84,NNW,327,2.0,6.0,59,0.00,,,0.00,Wunderground v.1.15,2013-07-14 00:32:00,
2013-07-13 21:32:00,67.4,62.4,29.89,NNW,327,1.0,1.0,84,0.00,,,0.00,Wunderground v.1.15,2013-07-14 04:32:00,
2013-07-13 21:34:00,67.3,62.3,29.89,NNW,327,1.0,1.0,84,0.00,,,0.00,Wunderground v.1.15,2013-07-14 04:34:00,
2013-07-13 21:36:00,67.3,62.3,29.89,NNW,327,1.0,1.0,84,0.00,,,0.00,Wunderground v.1.15,2013-07-14 04:36:00,
2013-07-13 21:38:00,67.2,62.2,29.90,NNW,327,1.0,1.0,84,0.00,,,0.00,Wunderground v.1.15,2013-07-14 04:38:00,
2013-07-13 21:44:00,67.0,62.0,29.90,NNW,327,1.0,1.0,84,0.00,,,0.00,Wunderground v.1.15,2013-07-14 04:44:00,
2013-07-13 21:48:00,67.0,62.0,29.90,NNW,327,0.0,1.0,84,0.00,,,0.00,Wunderground v.1.15,2013-07-14 04:48:00,
2013-07-13 21:50:00,66.9,61.9,29.90,NNW,327,0.0,1.0,84,0.00,,,0.00,Wunderground v.1.15,2013-07-14 04:50:00,
2013-07-13 21:52:00,66.9,61.9,29.90,NNW,327,0.0,0.0,84,0.00,,,0.00,Wunderground v.1.15,2013-07-14 04:52:00,
2013-07-13 21:56:00,66.9,61.9,29.90,NNW,327,0.0,0.0,84,0.00,,,0.00,Wunderground v.1.15,2013-07-14 04:56:00,
2013-07-13 21:58:00,66.8,61.8,29.90,NNW,327,0.0,0.0,84,0.00,,,0.00,Wunderground v.1.15,2013-07-14 04:58:00,
2013-07-13 22:02:00,66.7,61.7,29.90,NNW,327,0.0,0.0,84,0.00,,,0.00,Wunderground v.1.15,2013-07-14 05:02:00,
2013-07-13 22:04:00,66.7,61.7,29.90,NNW,327,0.0,0.0,84,0.00,,,0.00,Wunderground v.1.15,2013-07-14 05:04:00,
2013-07-13 22:06:00,66.6,61.6,29.90,NNW,327,0.0,0.0,84,0.00,,,0.00,Wunderground v.1.15,2013-07-14 05:06:00,
2013-07-13 22:08:00,66.6,61.6,29.90,NNW,327,0.0,0.0,84,0.00,,,0.00,Wunderground v.1.15,2013-07-14 05:08:00,
2013-07-13 22:12:00,66.5,61.5,29.90,NNW,327,0.0,0.0,84,0.00,,,0.00,Wunderground v.1.15,2013-07-14 05:12:00,
2013-07-13 22:14:00,66.4,61.4,29.90,NNW,327,0.0,0.0,84,0.00,,,0.00,Wunderground v.1.15,2013-07-14 05:14:00,
2013-07-13 22:18:00,66.3,61.3,29.90,NNW,327,0.0,0.0,84,0.00,,,0.00,Wunderground v.1.15,2013-07-14 05:18:00,